TimeCDT,TemperatureF,Dew PointF,Humidity,Sea Level PressureIn,VisibilityMPH,Wind Direction,Wind SpeedMPH,Gust SpeedMPH,PrecipitationIn,Events,Conditions,WindDirDegrees,DateUTC
12:15 AM,55.8,55.4,99,30.04,7.0,South,3.5,-,N/A,,Scattered Clouds,190,2012-10-04 05:15:00
12:35 AM,55.0,54.5,98,30.04,7.0,South,4.6,-,N/A,,Clear,190,2012-10-04 05:35:00
12:55 AM,54.5,53.8,97,30.04,10.0,South,5.8,-,N/A,,Clear,190,2012-10-04 05:55:00
1:15 AM,54.7,53.8,97,30.05,10.0,SSW,4.6,-,N/A,,Scattered Clouds,200,2012-10-04 06:15:00
1:35 AM,54.5,53.2,96,30.06,10.0,South,5.8,-,N/A,,Scattered Clouds,190,2012-10-04 06:35:00
2:15 AM,53.2,52.3,97,30.06,10.0,SSW,5.8,-,N/A,,Clear,210,2012-10-04 07:15:00
2:35 AM,53.4,52.5,97,30.07,10.0,SW,6.9,-,N/A,,Clear,220,2012-10-04 07:35:00
2:55 AM,53.8,52.7,96,30.07,10.0,SW,5.8,-,N/A,,Scattered Clouds,220,2012-10-04 07:55:00
3:15 AM,53.2,52.2,96,30.07,10.0,SW,3.5,-,N/A,,Scattered Clouds,220,2012-10-04 08:15:00
3:35 AM,53.4,52.3,96,30.08,10.0,SW,4.6,-,N/A,,Mostly Cloudy,220,2012-10-04 08:35:00
3:55 AM,53.8,52.9,97,30.08,10.0,SSW,4.6,-,N/A,,Overcast,210,2012-10-04 08:55:00
4:35 AM,55.2,53.6,94,30.08,7.0,South,5.8,-,N/A,,Overcast,180,2012-10-04 09:35:00
4:55 AM,54.3,53.2,96,30.08,7.0,South,5.8,-,N/A,,Overcast,180,2012-10-04 09:55:00
5:15 AM,54.0,53.1,97,30.08,10.0,South,5.8,-,N/A,,Overcast,190,2012-10-04 10:15:00
5:35 AM,54.1,53.1,96,30.08,10.0,South,3.5,-,N/A,,Overcast,190,2012-10-04 10:35:00
5:55 AM,54.3,53.1,95,30.08,10.0,South,4.6,-,N/A,,Overcast,190,2012-10-04 10:55:00
6:15 AM,54.5,53.2,96,30.08,10.0,South,4.6,-,N/A,,Overcast,170,2012-10-04 11:15:00
6:35 AM,54.7,53.4,96,30.08,10.0,South,3.5,-,N/A,,Overcast,180,2012-10-04 11:35:00
6:55 AM,54.5,53.1,95,30.08,10.0,South,5.8,-,N/A,,Mostly Cloudy,190,2012-10-04 11:55:00
7:15 AM,54.0,52.7,95,30.08,7.0,South,5.8,-,N/A,,Scattered Clouds,180,2012-10-04 12:15:00
7:35 AM,53.8,52.7,96,30.08,10.0,South,6.9,-,N/A,,Scattered Clouds,180,2012-10-04 12:35:00
7:55 AM,54.9,53.2,94,30.09,10.0,SSW,8.1,-,N/A,,Clear,200,2012-10-04 12:55:00
8:15 AM,56.5,54.3,92,30.09,10.0,SSW,9.2,-,N/A,,Scattered Clouds,200,2012-10-04 13:15:00
8:35 AM,58.1,55.2,90,30.10,10.0,SSW,9.2,-,N/A,,Scattered Clouds,210,2012-10-04 13:35:00
9:15 AM,61.5,56.5,83,30.10,10.0,SSW,9.2,-,N/A,,Clear,210,2012-10-04 14:15:00
9:35 AM,63.0,56.7,80,30.10,10.0,SSW,10.4,-,N/A,,Clear,210,2012-10-04 14:35:00
9:55 AM,64.6,57.0,76,30.10,10.0,SSW,11.5,-,N/A,,Clear,200,2012-10-04 14:55:00
10:15 AM,66.2,56.8,72,30.10,10.0,SSW,12.7,-,N/A,,Clear,200,2012-10-04 15:15:00
10:35 AM,67.6,56.7,68,30.09,10.0,SSW,11.5,-,N/A,,Clear,210,2012-10-04 15:35:00
11:15 AM,70.7,56.3,60,30.08,10.0,SSW,12.7,16.1,N/A,,Clear,200,2012-10-04 16:15:00
11:35 AM,72.0,56.1,57,30.08,10.0,SSW,9.2,-,N/A,,Clear,200,2012-10-04 16:35:00
11:55 AM,73.6,55.8,54,30.08,10.0,SSW,8.1,-,N/A,,Clear,210,2012-10-04 16:55:00
12:15 PM,74.8,54.9,50,30.07,10.0,South,11.5,19.6,N/A,,Clear,190,2012-10-04 17:15:00
12:35 PM,75.7,53.8,46,30.07,10.0,SSW,12.7,18.4,N/A,,Clear,200,2012-10-04 17:35:00
12:55 PM,76.8,53.1,44,30.05,10.0,SSW,12.7,21.9,N/A,,Clear,210,2012-10-04 17:55:00
1:15 PM,77.4,51.6,41,30.04,10.0,SW,15.0,23.0,N/A,,Scattered Clouds,230,2012-10-04 18:15:00
1:35 PM,78.1,50.4,38,30.03,10.0,SW,15.0,24.2,N/A,,Scattered Clouds,230,2012-10-04 18:35:00
1:55 PM,79.2,49.8,36,30.03,10.0,SW,15.0,23.0,N/A,,Clear,220,2012-10-04 18:55:00
2:15 PM,79.7,47.8,33,30.03,10.0,SW,17.3,25.3,N/A,,Scattered Clouds,220,2012-10-04 19:15:00
2:35 PM,79.7,48.9,34,30.03,10.0,WSW,16.1,28.8,N/A,,Scattered Clouds,240,2012-10-04 19:35:00
2:55 PM,80.2,49.1,34,30.03,10.0,SW,19.6,26.5,N/A,,Scattered Clouds,220,2012-10-04 19:55:00
3:15 PM,80.6,48.7,33,30.02,10.0,SW,18.4,23.0,N/A,,Scattered Clouds,230,2012-10-04 20:15:00
3:35 PM,80.8,48.4,32,30.01,10.0,WSW,16.1,27.6,N/A,,Clear,240,2012-10-04 20:35:00
3:55 PM,80.6,48.9,33,30.01,10.0,SW,18.4,26.5,N/A,,Clear,230,2012-10-04 20:55:00
4:15 PM,80.1,49.1,34,30.01,10.0,SW,12.7,23.0,N/A,,Clear,230,2012-10-04 21:15:00
4:35 PM,79.5,49.8,35,30.00,10.0,SW,11.5,24.2,N/A,,Scattered Clouds,220,2012-10-04 21:35:00
4:55 PM,79.2,50.2,36,30.00,10.0,SW,15.0,23.0,N/A,,Scattered Clouds,220,2012-10-04 21:55:00
5:15 PM,78.4,50.5,38,30.00,7.0,SW,16.1,24.2,N/A,,Mostly Cloudy,220,2012-10-04 22:15:00
5:35 PM,77.9,50.7,39,30.00,7.0,SW,12.7,20.7,N/A,,Overcast,230,2012-10-04 22:35:00
5:55 PM,77.2,50.9,40,30.00,7.0,SW,11.5,18.4,N/A,,Overcast,220,2012-10-04 22:55:00
6:15 PM,76.6,51.3,41,30.01,7.0,SW,8.1,-,N/A,,Overcast,220,2012-10-04 23:15:00
6:35 PM,73.9,53.8,49,30.03,7.0,West,16.1,23.0,N/A,,Overcast,270,2012-10-04 23:35:00
6:55 PM,71.2,54.7,56,30.04,10.0,West,17.3,28.8,N/A,,Mostly Cloudy,270,2012-10-04 23:55:00
7:15 PM,69.1,53.1,57,30.05,10.0,West,12.7,27.6,N/A,,Mostly Cloudy,280,2012-10-05 00:15:00
7:55 PM,65.7,51.3,60,30.05,10.0,WSW,8.1,-,N/A,,Overcast,250,2012-10-05 00:55:00
8:15 PM,64.2,51.4,63,30.04,10.0,West,5.8,-,N/A,,Overcast,270,2012-10-05 01:15:00
8:35 PM,62.4,52.9,71,30.07,10.0,West,16.1,23.0,N/A,,Overcast,280,2012-10-05 01:35:00
9:15 PM,58.6,56.5,93,30.09,7.0,West,5.8,-,N/A,,Overcast,270,2012-10-05 02:15:00
9:35 PM,57.7,56.3,95,30.08,5.0,West,6.9,-,N/A,,Overcast,260,2012-10-05 02:35:00
10:15 PM,55.2,54.1,96,30.10,10.0,WSW,9.2,-,N/A,,Overcast,250,2012-10-05 03:15:00
10:35 PM,54.3,52.7,94,30.10,10.0,WSW,5.8,-,N/A,,Overcast,240,2012-10-05 03:35:00
10:55 PM,54.1,52.7,95,30.11,10.0,WSW,8.1,-,N/A,,Overcast,240,2012-10-05 03:55:00
11:15 PM,53.2,52.2,96,30.11,10.0,WSW,8.1,-,N/A,,Overcast,250,2012-10-05 04:15:00
11:35 PM,52.5,51.3,95,30.11,10.0,West,5.8,-,N/A,,Overcast,260,2012-10-05 04:35:00
11:55 PM,52.3,50.9,95,30.11,10.0,West,10.4,-,N/A,,Overcast,270,2012-10-05 04:55:00